{"data":{"norad_id":56484,"epoch":"2026-09-20T22:00:03.000096Z","epoch_age_seconds":75977,"freshness":"FRESH","line1":"1 56484U 23064AN  26263.91670139  .00002115  00000+0  15975-3 0  9995","line2":"2 56484  70.0008 352.0802 0003566 264.2812 177.4679 15.04011732  5773","mean_motion":15.04011732,"eccentricity":0.0003566,"inclination_deg":70.0008,"raan_deg":352.0802,"arg_perigee_deg":264.2812,"mean_anomaly_deg":177.4679,"bstar":0.00015975,"rev_number":577,"period_min":95.743933997451,"perigee_km":552.06874670667,"apogee_km":557.01313261324,"semimajor_km":6932.67793966,"source":"CELESTRAK","updated_at":"2026-09-21T09:00:33.448460Z"}}